Regional Weather Roundup
Issued by NWS

Home | Current Version | Previous Version | Graphics & Text | Print | Product List | Glossary On
Versions: 1 2 3 4 5 6 7 8 9 10 11 12 13 14 15 16 17 18 19 20 21 22 23 24 25 26 27 28 29 30 31 32 33 34 35 36 37 38 39 40 41 42 43 44 45 46 47 48 49 50
000
ASUS43 KBIS 280302
RWRND

NORTH DAKOTA REGIONAL WEATHER ROUNDUP
NATIONAL WEATHER SERVICE BISMARCK ND
1000 PM CDT MON MAR 27 2017

NOTE: "FAIR" INDICATES FEW OR NO CLOUDS BELOW 12,000 FEET WITH NO
SIGNIFICANT WEATHER AND/OR OBSTRUCTIONS TO VISIBILITY.


NDZ001>003-009>011-017-280400-
NORTHWEST NORTH DAKOTA

CITY           SKY/WX    TMP DP  RH WIND       PRES   REMARKS
WILLISTON      LGT RAIN  45  37  73 NE14      30.00R
MINOT          FOG       36  35  96 E7        30.03R VSB 3/4
MINOT AFB      FOG       36  36 100 E9        30.02R VSB 3/4
$$

NDZ018>021-031>035-040>046-280400-
SOUTHWEST NORTH DAKOTA

CITY           SKY/WX    TMP DP  RH WIND       PRES   REMARKS
BISMARCK       FAIR      46  34  62 NE5       29.98R
DICKINSON      FAIR      43  35  73 NE10      29.92R
GARRISON         N/A     37  35  92 NE7       30.00R
HETTINGER ARPT CLEAR     46  30  53 E8        29.95R
$$

NDZ004>008-012>016-024-026-027-054-280400-
NORTHEAST NORTH DAKOTA

CITY           SKY/WX    TMP DP  RH WIND       PRES   REMARKS
GRAND FORKS    FOG       37  37 100 N8        30.05S VSB 1
GRND FRKS AFB  CLOUDY    36  36 100 N12       30.06S FOG
DEVILS LAKE    CLOUDY    35  35 100 E10       30.05R FOG
$$

NDZ022-023-025-028>030-036>039-047>053-280400-
SOUTHEAST NORTH DAKOTA

CITY           SKY/WX    TMP DP  RH WIND       PRES   REMARKS
FARGO          CLEAR     40  39  97 N10       30.02R FOG
JAMESTOWN      FAIR      39  37  92 E8        30.00R
$$





USA.gov is the U.S. government's official web portal to all federal, state and local government web resources and services.